Year,Month,Day,Hour,Minute,Value (Times are PST for temperature in C)
2009,12,08,00,00,-7.90
2009,12,08,00,01,-7.90
2009,12,08,00,02,-7.90
2009,12,08,00,03,-7.90
2009,12,08,00,04,-7.90
2009,12,08,00,05,-8.00
2009,12,08,00,06,-8.00
2009,12,08,00,07,-8.10
2009,12,08,00,08,-8.10
2009,12,08,00,09,-8.10
2009,12,08,00,10,-8.20
2009,12,08,00,11,-8.20
2009,12,08,00,12,-8.20
2009,12,08,00,13,-8.30
2009,12,08,00,14,-8.30
2009,12,08,00,15,-8.30
2009,12,08,00,16,-8.30
2009,12,08,00,17,-8.30
2009,12,08,00,18,-8.30
2009,12,08,00,19,-8.30
2009,12,08,00,20,-8.30
2009,12,08,00,21,-8.30
2009,12,08,00,22,-8.30
2009,12,08,00,23,-8.30
2009,12,08,00,24,-8.20
2009,12,08,00,25,-8.30
2009,12,08,00,26,-8.30
2009,12,08,00,27,-8.30
2009,12,08,00,28,-8.30
2009,12,08,00,29,-8.30
2009,12,08,00,30,-8.30
2009,12,08,00,31,-8.30
2009,12,08,00,32,-8.30
2009,12,08,00,33,-8.30
2009,12,08,00,34,-8.30
2009,12,08,00,35,-8.30
2009,12,08,00,36,-8.30
2009,12,08,00,37,-8.30
2009,12,08,00,38,-8.30
2009,12,08,00,39,-8.30
2009,12,08,00,40,-8.30
2009,12,08,00,41,-8.30
2009,12,08,00,42,-8.30
2009,12,08,00,43,-8.30
2009,12,08,00,44,-8.30
2009,12,08,00,45,-8.30
2009,12,08,00,46,-8.30
2009,12,08,00,47,-8.30
2009,12,08,00,48,-8.30
2009,12,08,00,49,-8.30
2009,12,08,00,50,-8.30
2009,12,08,00,51,-8.30
2009,12,08,00,52,-8.30
2009,12,08,00,53,-8.30
2009,12,08,00,54,-8.30
2009,12,08,00,55,-8.30
2009,12,08,00,56,-8.30
2009,12,08,00,57,-8.30
2009,12,08,00,58,-8.30
2009,12,08,00,59,-8.30
2009,12,08,01,00,-8.30
2009,12,08,01,01,-8.40
2009,12,08,01,02,-8.40
2009,12,08,01,03,-8.40
2009,12,08,01,04,-8.40
2009,12,08,01,05,-8.40
2009,12,08,01,06,-8.50
2009,12,08,01,07,-8.50
2009,12,08,01,08,-8.50
2009,12,08,01,09,-8.60
2009,12,08,01,10,-8.60
2009,12,08,01,11,-8.60
2009,12,08,01,12,-8.60
2009,12,08,01,13,-8.60
2009,12,08,01,14,-8.60
2009,12,08,01,15,-8.60
2009,12,08,01,16,-8.60
2009,12,08,01,17,-8.60
2009,12,08,01,18,-8.70
2009,12,08,01,19,-8.70
2009,12,08,01,20,-8.70
2009,12,08,01,21,-8.70
2009,12,08,01,22,-8.70
2009,12,08,01,23,-8.70
2009,12,08,01,24,-8.80
2009,12,08,01,25,-8.80
2009,12,08,01,26,-8.80
2009,12,08,01,27,-8.80
2009,12,08,01,28,-8.80
2009,12,08,01,29,-8.80
2009,12,08,01,30,-8.80
2009,12,08,01,31,-8.80
2009,12,08,01,32,-8.80
2009,12,08,01,33,-8.80
2009,12,08,01,34,-8.80
2009,12,08,01,35,-8.80
2009,12,08,01,36,-8.80
2009,12,08,01,37,-8.80
2009,12,08,01,38,-8.80
2009,12,08,01,39,-8.80
2009,12,08,01,40,-8.80
2009,12,08,01,41,-8.80
2009,12,08,01,42,-8.80
2009,12,08,01,43,-8.80
2009,12,08,01,44,-8.80
2009,12,08,01,45,-8.80
2009,12,08,01,46,-8.80
2009,12,08,01,47,-8.80
2009,12,08,01,48,-8.80
2009,12,08,01,49,-8.80
2009,12,08,01,50,-8.80
2009,12,08,01,51,-8.80
2009,12,08,01,52,-8.90
2009,12,08,01,53,-8.90
2009,12,08,01,54,-8.90
2009,12,08,01,55,-9.00
2009,12,08,01,56,-9.00
2009,12,08,01,57,-9.00
2009,12,08,01,58,-9.00
2009,12,08,01,59,-9.00
2009,12,08,02,00,-9.00
2009,12,08,02,01,-9.00
2009,12,08,02,02,-9.00
2009,12,08,02,03,-9.00
2009,12,08,02,04,-9.00
2009,12,08,02,05,-9.00
2009,12,08,02,06,-9.00
2009,12,08,02,07,-9.00
2009,12,08,02,08,-9.00
2009,12,08,02,09,-9.00
2009,12,08,02,10,-9.00
2009,12,08,02,11,-9.00
2009,12,08,02,12,-9.00
2009,12,08,02,13,-9.00
2009,12,08,02,14,-9.00
2009,12,08,02,15,-9.10
2009,12,08,02,16,-9.10
2009,12,08,02,17,-9.10
2009,12,08,02,18,-9.10
2009,12,08,02,19,-9.10
2009,12,08,02,20,-9.10
2009,12,08,02,21,-9.10
2009,12,08,02,22,-9.10
2009,12,08,02,23,-9.10
2009,12,08,02,24,-9.10
2009,12,08,02,25,-9.10
2009,12,08,02,26,-9.10
2009,12,08,02,27,-9.10
2009,12,08,02,28,-9.10
2009,12,08,02,29,-9.10
2009,12,08,02,30,-9.10
2009,12,08,02,31,-9.10
2009,12,08,02,32,-9.10
2009,12,08,02,33,-9.10
2009,12,08,02,34,-9.10
2009,12,08,02,35,-9.10
2009,12,08,02,36,-9.20
2009,12,08,02,37,-9.20
2009,12,08,02,38,-9.20
2009,12,08,02,39,-9.20
2009,12,08,02,40,-9.20
2009,12,08,02,41,-9.20
2009,12,08,02,42,-9.20
2009,12,08,02,43,-9.20
2009,12,08,02,44,-9.20
2009,12,08,02,45,-9.20
2009,12,08,02,46,-9.20
2009,12,08,02,47,-9.20
2009,12,08,02,48,-9.20
2009,12,08,02,49,-9.20
2009,12,08,02,50,-9.20
2009,12,08,02,51,-9.20
2009,12,08,02,52,-9.30
2009,12,08,02,53,-9.30
2009,12,08,02,54,-9.30
2009,12,08,02,55,-9.20
2009,12,08,02,56,-9.20
2009,12,08,02,57,-9.20
2009,12,08,02,58,-9.20
2009,12,08,02,59,-9.20
2009,12,08,03,00,-9.20
2009,12,08,03,01,-9.20
2009,12,08,03,02,-9.10
2009,12,08,03,06,-9.20
2009,12,08,03,07,-9.10
2009,12,08,03,08,-9.10
2009,12,08,03,09,-9.20
2009,12,08,03,10,-9.20
2009,12,08,03,11,-9.20
2009,12,08,03,12,-9.20
2009,12,08,03,13,-9.20
2009,12,08,03,14,-9.20
2009,12,08,03,15,-9.10
2009,12,08,03,16,-9.10
2009,12,08,03,17,-9.10
2009,12,08,03,18,-9.10
2009,12,08,03,19,-9.10
2009,12,08,03,20,-9.10
2009,12,08,03,21,-9.10
2009,12,08,03,22,-9.10
2009,12,08,03,23,-9.10
2009,12,08,03,24,-9.10
2009,12,08,03,25,-9.10
2009,12,08,03,26,-9.10
2009,12,08,03,27,-9.10
2009,12,08,03,28,-9.10
2009,12,08,03,29,-9.10
2009,12,08,03,30,-9.10
2009,12,08,03,31,-9.10
2009,12,08,03,32,-9.10
2009,12,08,03,33,-9.10
2009,12,08,03,34,-9.20
2009,12,08,03,35,-9.20
2009,12,08,03,36,-9.20
2009,12,08,03,37,-9.20
2009,12,08,03,38,-9.30
2009,12,08,03,39,-9.30
2009,12,08,03,40,-9.30
2009,12,08,03,41,-9.30
2009,12,08,03,42,-9.30
2009,12,08,03,43,-9.30
2009,12,08,03,44,-9.30
2009,12,08,03,45,-9.30
2009,12,08,03,46,-9.30
2009,12,08,03,47,-9.30
2009,12,08,03,48,-9.30
2009,12,08,03,49,-9.30
2009,12,08,03,50,-9.30
2009,12,08,03,51,-9.30
2009,12,08,03,52,-9.30
2009,12,08,03,53,-9.30
2009,12,08,03,54,-9.30
2009,12,08,03,55,-9.30
2009,12,08,03,56,-9.30
2009,12,08,03,57,-9.30
2009,12,08,03,58,-9.30
2009,12,08,03,59,-9.30
2009,12,08,04,00,-9.30
2009,12,08,04,01,-9.30
2009,12,08,04,02,-9.20
2009,12,08,04,03,-9.20
2009,12,08,04,04,-9.20
2009,12,08,04,05,-9.10
2009,12,08,04,06,-9.10
2009,12,08,04,07,-9.10
2009,12,08,04,08,-9.10
2009,12,08,04,09,-9.10
2009,12,08,04,10,-9.10
2009,12,08,04,11,-9.10
2009,12,08,04,12,-9.20
2009,12,08,04,13,-9.20
2009,12,08,04,14,-9.20
2009,12,08,04,15,-9.20
2009,12,08,04,16,-9.20
2009,12,08,04,17,-9.20
2009,12,08,04,18,-9.20
2009,12,08,04,19,-9.20
2009,12,08,04,20,-9.20
2009,12,08,04,21,-9.20
2009,12,08,04,22,-9.20
2009,12,08,04,23,-9.20
2009,12,08,04,24,-9.20
2009,12,08,04,25,-9.20
2009,12,08,04,26,-9.20
2009,12,08,04,27,-9.20
2009,12,08,04,28,-9.20
2009,12,08,04,29,-9.20
2009,12,08,04,30,-9.20
2009,12,08,04,31,-9.20
2009,12,08,04,32,-9.20
2009,12,08,04,33,-9.20
2009,12,08,04,34,-9.20
2009,12,08,04,35,-9.10
2009,12,08,04,36,-9.10
2009,12,08,04,37,-9.10
2009,12,08,04,38,-9.10
2009,12,08,04,39,-9.10
2009,12,08,04,40,-9.10
2009,12,08,04,41,-9.10
2009,12,08,04,42,-9.10
2009,12,08,04,43,-9.10
2009,12,08,04,44,-9.20
2009,12,08,04,45,-9.20
2009,12,08,04,46,-9.20
2009,12,08,04,47,-9.20
2009,12,08,04,48,-9.20
2009,12,08,04,49,-9.20
2009,12,08,04,50,-9.20
2009,12,08,04,51,-9.20
2009,12,08,04,52,-9.30
2009,12,08,04,53,-9.30
2009,12,08,04,54,-9.30
2009,12,08,04,55,-9.30
2009,12,08,04,56,-9.30
2009,12,08,04,57,-9.30
2009,12,08,04,58,-9.30
2009,12,08,04,59,-9.30
2009,12,08,05,00,-9.40
2009,12,08,05,01,-9.40
2009,12,08,05,02,-9.40
2009,12,08,05,03,-9.40
2009,12,08,05,04,-9.40
2009,12,08,05,05,-9.40
2009,12,08,05,06,-9.40
2009,12,08,05,07,-9.40
2009,12,08,05,08,-9.40
2009,12,08,05,09,-9.40
2009,12,08,05,10,-9.40
2009,12,08,05,11,-9.40
2009,12,08,05,12,-9.40
2009,12,08,05,13,-9.40
2009,12,08,05,14,-9.40
2009,12,08,05,15,-9.40
2009,12,08,05,16,-9.40
2009,12,08,05,17,-9.40
2009,12,08,05,18,-9.40
2009,12,08,05,19,-9.30
2009,12,08,05,20,-9.30
2009,12,08,05,21,-9.30
2009,12,08,05,22,-9.30
2009,12,08,05,23,-9.30
2009,12,08,05,24,-9.30
2009,12,08,05,25,-9.30
2009,12,08,05,26,-9.30
2009,12,08,05,27,-9.30
2009,12,08,05,28,-9.30
2009,12,08,05,29,-9.30
2009,12,08,05,30,-9.30
2009,12,08,05,31,-9.30
2009,12,08,05,32,-9.30
2009,12,08,05,33,-9.30
2009,12,08,05,34,-9.30
2009,12,08,05,35,-9.30
2009,12,08,05,36,-9.30
2009,12,08,05,37,-9.30
2009,12,08,05,38,-9.30
2009,12,08,05,39,-9.30
2009,12,08,05,40,-9.40
2009,12,08,05,41,-9.40
2009,12,08,05,42,-9.40
2009,12,08,05,43,-9.40
2009,12,08,05,44,-9.50
2009,12,08,05,45,-9.50
2009,12,08,05,46,-9.40
2009,12,08,05,47,-9.40
2009,12,08,05,48,-9.40
2009,12,08,05,49,-9.40
2009,12,08,05,50,-9.40
2009,12,08,05,51,-9.40
2009,12,08,05,52,-9.40
2009,12,08,05,53,-9.40
2009,12,08,05,54,-9.30
2009,12,08,05,55,-9.30
2009,12,08,05,56,-9.30
2009,12,08,05,57,-9.30
2009,12,08,05,58,-9.30
2009,12,08,05,59,-9.30
2009,12,08,06,00,-9.30
2009,12,08,06,01,-9.30
2009,12,08,06,02,-9.30
2009,12,08,06,03,-9.30
2009,12,08,06,04,-9.30
2009,12,08,06,05,-9.30
2009,12,08,06,06,-9.30
2009,12,08,06,07,-9.30
2009,12,08,06,08,-9.30
2009,12,08,06,09,-9.30
2009,12,08,06,10,-9.30
2009,12,08,06,11,-9.30
2009,12,08,06,12,-9.30
2009,12,08,06,13,-9.30
2009,12,08,06,14,-9.30
2009,12,08,06,15,-9.30
2009,12,08,06,16,-9.30
2009,12,08,06,17,-9.30
2009,12,08,06,18,-9.30
2009,12,08,06,19,-9.30
2009,12,08,06,20,-9.30
2009,12,08,06,21,-9.30
2009,12,08,06,22,-9.30
2009,12,08,06,23,-9.30
2009,12,08,06,24,-9.30
2009,12,08,06,25,-9.30
2009,12,08,06,26,-9.40
2009,12,08,06,27,-9.40
2009,12,08,06,28,-9.40
2009,12,08,06,29,-9.50
2009,12,08,06,30,-9.50
2009,12,08,06,31,-9.60
2009,12,08,06,32,-9.60
2009,12,08,06,33,-9.60
2009,12,08,06,34,-9.60
2009,12,08,06,35,-9.60
2009,12,08,06,36,-9.60
2009,12,08,06,37,-9.60
2009,12,08,06,38,-9.60
2009,12,08,06,39,-9.60
2009,12,08,06,40,-9.60
2009,12,08,06,41,-9.60
2009,12,08,06,42,-9.60
2009,12,08,06,43,-9.60
2009,12,08,06,44,-9.60
2009,12,08,06,45,-9.60
2009,12,08,06,46,-9.60
2009,12,08,06,47,-9.60
2009,12,08,06,48,-9.70
2009,12,08,06,49,-9.70
2009,12,08,06,50,-9.70
2009,12,08,06,51,-9.80
2009,12,08,06,52,-9.80
2009,12,08,06,53,-9.80
2009,12,08,06,54,-9.80
2009,12,08,06,55,-9.80
2009,12,08,06,56,-9.80
2009,12,08,06,57,-9.80
2009,12,08,06,58,-9.80
2009,12,08,06,59,-9.80
2009,12,08,07,00,-9.80
2009,12,08,07,01,-9.70
2009,12,08,07,02,-9.70
2009,12,08,07,03,-9.70
2009,12,08,07,04,-9.70
2009,12,08,07,05,-9.60
2009,12,08,07,06,-9.60
2009,12,08,07,07,-9.50
2009,12,08,07,08,-9.40
2009,12,08,07,09,-9.40
2009,12,08,07,10,-9.30
2009,12,08,07,11,-9.30
2009,12,08,07,12,-9.20
2009,12,08,07,13,-9.20
2009,12,08,07,14,-9.20
2009,12,08,07,15,-9.20
2009,12,08,07,16,-9.10
2009,12,08,07,17,-9.10
2009,12,08,07,18,-9.10
2009,12,08,07,19,-9.20
2009,12,08,07,20,-9.20
2009,12,08,07,21,-9.20
2009,12,08,07,22,-9.20
2009,12,08,07,23,-9.20
2009,12,08,07,24,-9.20
2009,12,08,07,25,-9.20
2009,12,08,07,26,-9.20
2009,12,08,07,27,-9.20
2009,12,08,07,28,-9.30
2009,12,08,07,29,-9.30
2009,12,08,07,30,-9.30
2009,12,08,07,31,-9.30
2009,12,08,07,32,-9.30
2009,12,08,07,33,-9.40
2009,12,08,07,34,-9.40
2009,12,08,07,35,-9.40
2009,12,08,07,36,-9.40
2009,12,08,07,37,-9.40
2009,12,08,07,38,-9.40
2009,12,08,07,39,-9.40
2009,12,08,07,40,-9.40
2009,12,08,07,41,-9.40
2009,12,08,07,42,-9.40
2009,12,08,07,43,-9.40
2009,12,08,07,44,-9.40
2009,12,08,07,45,-9.40
2009,12,08,07,46,-9.40
2009,12,08,07,47,-9.40
2009,12,08,07,48,-9.30
2009,12,08,07,49,-9.30
2009,12,08,07,50,-9.30
2009,12,08,07,51,-9.30
2009,12,08,07,52,-9.30
2009,12,08,07,53,-9.30
2009,12,08,07,54,-9.30
2009,12,08,07,55,-9.30
2009,12,08,07,56,-9.30
2009,12,08,07,57,-9.30
2009,12,08,07,58,-9.30
2009,12,08,07,59,-9.30
2009,12,08,08,00,-9.20
2009,12,08,08,01,-9.20
2009,12,08,08,02,-9.20
2009,12,08,08,03,-9.20
2009,12,08,08,04,-9.20
2009,12,08,08,05,-9.20
2009,12,08,08,06,-9.20
2009,12,08,08,07,-9.20
2009,12,08,08,08,-9.20
2009,12,08,08,09,-9.20
2009,12,08,08,10,-9.20
2009,12,08,08,11,-9.20
2009,12,08,08,12,-9.20
2009,12,08,08,13,-9.20
2009,12,08,08,14,-9.20
2009,12,08,08,15,-9.20
2009,12,08,08,16,-9.20
2009,12,08,08,17,-9.20
2009,12,08,08,18,-9.10
2009,12,08,08,19,-9.10
2009,12,08,08,20,-9.10
2009,12,08,08,21,-9.00
2009,12,08,08,22,-9.00
2009,12,08,08,23,-9.00
2009,12,08,08,24,-9.00
2009,12,08,08,25,-9.00
2009,12,08,08,26,-9.00
2009,12,08,08,27,-9.00
2009,12,08,08,28,-9.00
2009,12,08,08,29,-9.00
2009,12,08,08,30,-9.00
2009,12,08,08,31,-8.90
2009,12,08,08,32,-9.00
2009,12,08,08,33,-9.00
2009,12,08,08,34,-9.00
2009,12,08,08,35,-9.00
2009,12,08,08,36,-9.00
2009,12,08,08,37,-8.90
2009,12,08,08,38,-8.90
2009,12,08,08,39,-8.90
2009,12,08,08,40,-8.90
2009,12,08,08,41,-8.90
2009,12,08,08,42,-8.90
2009,12,08,08,43,-8.90
2009,12,08,08,44,-8.90
2009,12,08,08,45,-8.80
2009,12,08,08,46,-8.80
2009,12,08,08,47,-8.80
2009,12,08,08,48,-8.80
2009,12,08,08,49,-8.80
2009,12,08,08,50,-8.70
2009,12,08,08,51,-8.70
2009,12,08,08,52,-8.60
2009,12,08,08,53,-8.60
2009,12,08,08,54,-8.50
2009,12,08,08,55,-8.40
2009,12,08,08,56,-8.40
2009,12,08,08,57,-8.30
2009,12,08,08,58,-8.30
2009,12,08,08,59,-8.20
2009,12,08,09,00,-8.20
2009,12,08,09,01,-8.10
2009,12,08,09,02,-8.00
2009,12,08,09,03,-7.90
2009,12,08,09,04,-7.80
2009,12,08,09,05,-7.70
2009,12,08,09,06,-7.70
2009,12,08,09,07,-7.60
2009,12,08,09,08,-7.50
2009,12,08,09,09,-7.50
2009,12,08,09,10,-7.40
2009,12,08,09,11,-7.30
2009,12,08,09,12,-7.30
2009,12,08,09,13,-7.20
2009,12,08,09,14,-7.20
2009,12,08,09,15,-7.10
2009,12,08,09,16,-7.10
2009,12,08,09,17,-7.00
2009,12,08,09,18,-7.00
2009,12,08,09,19,-6.90
2009,12,08,09,20,-6.80
2009,12,08,09,21,-6.80
2009,12,08,09,22,-6.80
2009,12,08,09,23,-6.60
2009,12,08,09,24,-6.50
2009,12,08,09,25,-6.50
2009,12,08,09,26,-6.40
2009,12,08,09,27,-6.30
2009,12,08,09,28,-6.20
2009,12,08,09,29,-6.10
2009,12,08,09,30,-6.10
2009,12,08,09,31,-6.00
2009,12,08,09,32,-6.00
2009,12,08,09,33,-5.90
2009,12,08,09,34,-5.80
2009,12,08,09,35,-5.80
2009,12,08,09,36,-5.70
2009,12,08,09,37,-5.70
2009,12,08,09,38,-5.60
2009,12,08,09,39,-5.50
2009,12,08,09,40,-5.40
2009,12,08,09,41,-5.20
2009,12,08,09,42,-4.90
2009,12,08,09,43,-4.70
2009,12,08,09,44,-4.60
2009,12,08,09,45,-4.40
2009,12,08,09,46,-4.10
2009,12,08,09,47,-3.70
2009,12,08,09,48,-3.40
2009,12,08,09,49,-3.10
2009,12,08,09,50,-2.80
2009,12,08,09,51,-2.50
2009,12,08,09,52,-2.30
2009,12,08,09,53,-2.10
2009,12,08,09,54,-2.00
2009,12,08,09,55,-1.90
2009,12,08,09,56,-1.80
2009,12,08,09,57,-1.70
2009,12,08,09,58,-1.60
2009,12,08,09,59,-1.50
2009,12,08,10,00,-1.40
2009,12,08,10,01,-1.30
2009,12,08,10,02,-1.20
2009,12,08,10,03,-1.10
2009,12,08,10,04,-1.00
2009,12,08,10,05,-0.90
2009,12,08,10,06,-0.90
2009,12,08,10,07,-0.90
2009,12,08,10,08,-0.90
2009,12,08,10,09,-0.80
2009,12,08,10,10,-0.80
2009,12,08,10,11,-0.70
2009,12,08,10,12,-0.70
2009,12,08,10,13,-0.70
2009,12,08,10,14,-0.70
2009,12,08,10,15,-0.60
2009,12,08,10,16,-0.60
2009,12,08,10,17,-0.50
2009,12,08,10,18,-0.50
2009,12,08,10,19,-0.40
2009,12,08,10,20,-0.40
2009,12,08,10,21,-0.40
2009,12,08,10,22,-0.40
2009,12,08,10,23,-0.40
2009,12,08,10,24,-0.40
2009,12,08,10,25,-0.40
2009,12,08,10,26,-0.40
2009,12,08,10,27,-0.40
2009,12,08,10,28,-0.40
2009,12,08,10,29,-0.30
2009,12,08,10,30,-0.30
2009,12,08,10,31,-0.30
2009,12,08,10,32,-0.30
2009,12,08,10,33,-0.30
2009,12,08,10,34,-0.30
2009,12,08,10,35,-0.30
2009,12,08,10,36,-0.30
2009,12,08,10,37,-0.20
2009,12,08,10,38,-0.20
2009,12,08,10,39,-0.20
2009,12,08,10,40,-0.20
2009,12,08,10,41,-0.20
2009,12,08,10,42,-0.20
2009,12,08,10,43,-0.20
2009,12,08,10,44,-0.20
2009,12,08,10,45,-0.20
2009,12,08,10,46,-0.20
2009,12,08,10,47,-0.10
2009,12,08,10,48,-0.10
2009,12,08,10,49,0.00
2009,12,08,10,50,0.00
2009,12,08,10,51,0.10
2009,12,08,10,52,0.10
2009,12,08,10,53,0.10
2009,12,08,10,54,0.10
2009,12,08,10,55,0.20
2009,12,08,10,56,0.20
2009,12,08,10,57,0.20
2009,12,08,10,58,0.30
2009,12,08,10,59,0.30
2009,12,08,11,00,0.30
2009,12,08,11,01,0.30
2009,12,08,11,02,0.30
2009,12,08,11,03,0.30
2009,12,08,11,04,0.20
2009,12,08,11,05,0.20
2009,12,08,11,06,0.10
2009,12,08,11,07,0.10
2009,12,08,11,08,0.10
2009,12,08,11,09,0.10
2009,12,08,11,10,0.10
2009,12,08,11,11,0.10
2009,12,08,11,12,0.10
2009,12,08,11,13,0.10
2009,12,08,11,14,0.10
2009,12,08,11,15,0.20
2009,12,08,11,16,0.20
2009,12,08,11,17,0.20
2009,12,08,11,18,0.20
2009,12,08,11,19,0.20
2009,12,08,11,20,0.20
2009,12,08,11,21,0.10
2009,12,08,11,22,0.10
2009,12,08,11,23,0.10
2009,12,08,11,24,0.10
2009,12,08,11,25,0.10
2009,12,08,11,26,0.20
2009,12,08,11,27,0.20
2009,12,08,11,28,0.30
2009,12,08,11,29,0.40
2009,12,08,11,30,0.40
2009,12,08,11,31,0.40
2009,12,08,11,32,0.40
2009,12,08,11,33,0.30
2009,12,08,11,34,0.30
2009,12,08,11,35,0.30
2009,12,08,11,36,0.30
2009,12,08,11,37,0.30
2009,12,08,11,38,0.30
2009,12,08,11,39,0.30
2009,12,08,11,40,0.40
2009,12,08,11,41,0.40
2009,12,08,11,42,0.40
2009,12,08,11,43,0.50
2009,12,08,11,44,0.50
2009,12,08,11,45,0.50
2009,12,08,11,46,0.50
2009,12,08,11,47,0.60
2009,12,08,11,48,0.60
2009,12,08,11,49,0.60
2009,12,08,11,50,0.60
2009,12,08,11,51,0.60
2009,12,08,11,52,0.60
2009,12,08,11,53,0.50
2009,12,08,11,54,0.60
2009,12,08,11,55,0.60
2009,12,08,11,56,0.60
2009,12,08,11,57,0.60
2009,12,08,11,58,0.60
2009,12,08,11,59,0.70
2009,12,08,12,00,0.70
2009,12,08,12,01,0.70
2009,12,08,12,02,0.60
2009,12,08,12,03,0.60
2009,12,08,12,04,0.60
2009,12,08,12,05,0.70
2009,12,08,12,06,0.70
2009,12,08,12,07,0.70
2009,12,08,12,08,0.70
2009,12,08,12,09,0.70
2009,12,08,12,10,0.70
2009,12,08,12,11,0.70
2009,12,08,12,12,0.70
2009,12,08,12,13,0.70
2009,12,08,12,14,0.70
2009,12,08,12,15,0.70
2009,12,08,12,16,0.80
2009,12,08,12,17,0.80
2009,12,08,12,18,0.90
2009,12,08,12,19,0.90
2009,12,08,12,20,1.00
2009,12,08,12,21,0.90
2009,12,08,12,22,0.90
2009,12,08,12,23,0.80
2009,12,08,12,24,0.80
2009,12,08,12,25,0.80
2009,12,08,12,26,0.80
2009,12,08,12,27,0.80
2009,12,08,12,28,0.80
2009,12,08,12,29,0.80
2009,12,08,12,30,0.80
2009,12,08,12,31,0.80
2009,12,08,12,32,0.80
2009,12,08,12,33,0.70
2009,12,08,12,34,0.70
2009,12,08,12,35,0.70
2009,12,08,12,36,0.80
2009,12,08,12,37,0.80
2009,12,08,12,38,0.90
2009,12,08,12,39,0.90
2009,12,08,12,40,1.00
2009,12,08,12,41,1.00
2009,12,08,12,42,1.10
2009,12,08,12,43,1.10
2009,12,08,12,44,1.10
2009,12,08,12,45,1.10
2009,12,08,12,46,1.00
2009,12,08,12,47,1.10
2009,12,08,12,48,1.10
2009,12,08,12,49,1.20
2009,12,08,12,50,1.20
2009,12,08,12,51,1.20
2009,12,08,12,52,1.10
2009,12,08,12,53,1.10
2009,12,08,12,54,1.10
2009,12,08,12,55,1.00
2009,12,08,12,56,0.90
2009,12,08,12,57,0.80
2009,12,08,12,58,0.80
2009,12,08,12,59,0.80
2009,12,08,13,00,0.80
2009,12,08,13,01,0.80
2009,12,08,13,02,0.80
2009,12,08,13,03,0.80
2009,12,08,13,04,0.80
2009,12,08,13,05,0.80
2009,12,08,13,06,0.90
2009,12,08,13,07,0.90
2009,12,08,13,08,0.90
2009,12,08,13,09,1.00
2009,12,08,13,10,1.00
2009,12,08,13,11,1.10
2009,12,08,13,12,1.10
2009,12,08,13,13,1.00
2009,12,08,13,14,1.00
2009,12,08,13,15,0.90
2009,12,08,13,16,0.90
2009,12,08,13,17,0.90
2009,12,08,13,18,0.90
2009,12,08,13,19,1.00
2009,12,08,13,20,1.00
2009,12,08,13,21,1.10
2009,12,08,13,22,1.10
2009,12,08,13,23,1.10
2009,12,08,13,24,1.10
2009,12,08,13,25,1.20
2009,12,08,13,26,1.20
2009,12,08,13,27,1.20
2009,12,08,13,28,1.20
2009,12,08,13,29,1.20
2009,12,08,13,30,1.20
2009,12,08,13,31,1.20
2009,12,08,13,32,1.30
2009,12,08,13,33,1.30
2009,12,08,13,34,1.30
2009,12,08,13,35,1.30
2009,12,08,13,36,1.20
2009,12,08,13,37,1.20
2009,12,08,13,38,1.20
2009,12,08,13,39,1.30
2009,12,08,13,40,1.20
2009,12,08,13,41,1.20
2009,12,08,13,42,1.20
2009,12,08,13,43,1.10
2009,12,08,13,44,1.10
2009,12,08,13,45,1.10
2009,12,08,13,46,1.10
2009,12,08,13,47,1.20
2009,12,08,13,48,1.20
2009,12,08,13,49,1.20
2009,12,08,13,50,1.10
2009,12,08,13,51,1.00
2009,12,08,13,52,1.00
2009,12,08,13,53,1.00
2009,12,08,13,54,0.90
2009,12,08,13,55,1.00
2009,12,08,13,56,1.00
2009,12,08,13,57,1.10
2009,12,08,13,58,1.10
2009,12,08,13,59,1.10
2009,12,08,14,00,1.10
2009,12,08,14,01,1.10
2009,12,08,14,02,1.10
2009,12,08,14,03,1.10
2009,12,08,14,04,1.10
2009,12,08,14,05,1.10
2009,12,08,14,06,1.00
2009,12,08,14,07,1.00
2009,12,08,14,08,1.00
2009,12,08,14,09,1.00
2009,12,08,14,10,1.00
2009,12,08,14,11,1.00
2009,12,08,14,12,1.00
2009,12,08,14,13,1.10
2009,12,08,14,14,1.20
2009,12,08,14,15,1.30
2009,12,08,14,16,1.30
2009,12,08,14,17,1.40
2009,12,08,14,18,1.60
2009,12,08,14,19,1.60
2009,12,08,14,20,1.60
2009,12,08,14,21,1.50
2009,12,08,14,22,1.50
2009,12,08,14,23,1.50
2009,12,08,14,24,1.60
2009,12,08,14,25,1.60
2009,12,08,14,26,1.60
2009,12,08,14,27,1.60
2009,12,08,14,28,1.60
2009,12,08,14,29,1.50
2009,12,08,14,30,1.50
2009,12,08,14,31,1.60
2009,12,08,14,32,1.60
2009,12,08,14,33,1.60
2009,12,08,14,34,1.60
2009,12,08,14,35,1.60
2009,12,08,14,36,1.50
2009,12,08,14,37,1.40
2009,12,08,14,38,1.40
2009,12,08,14,39,1.30
2009,12,08,14,40,1.30
2009,12,08,14,41,1.20
2009,12,08,14,42,1.10
2009,12,08,14,43,1.00
2009,12,08,14,44,0.80
2009,12,08,14,45,0.60
2009,12,08,14,46,0.50
2009,12,08,14,47,0.30
2009,12,08,14,48,0.20
2009,12,08,14,49,0.10
2009,12,08,14,50,0.00
2009,12,08,14,51,0.00
2009,12,08,14,52,-0.10
2009,12,08,14,53,-0.20
2009,12,08,14,54,-0.30
2009,12,08,14,55,-0.30
2009,12,08,14,56,-0.40
2009,12,08,14,57,-0.50
2009,12,08,14,58,-0.60
2009,12,08,14,59,-0.60
2009,12,08,15,00,-0.70
2009,12,08,15,01,-0.70
2009,12,08,15,02,-0.80
2009,12,08,15,03,-0.80
2009,12,08,15,04,-0.80
2009,12,08,15,05,-0.80
2009,12,08,15,06,-0.80
2009,12,08,15,07,-0.90
2009,12,08,15,08,-0.90
2009,12,08,15,09,-0.90
2009,12,08,15,10,-1.00
2009,12,08,15,11,-1.00
2009,12,08,15,12,-1.00
2009,12,08,15,13,-1.10
2009,12,08,15,14,-1.10
2009,12,08,15,15,-1.20
2009,12,08,15,16,-1.20
2009,12,08,15,17,-1.30
2009,12,08,15,18,-1.30
2009,12,08,15,19,-1.30
2009,12,08,15,20,-1.30
2009,12,08,15,21,-1.40
2009,12,08,15,22,-1.40
2009,12,08,15,23,-1.50
2009,12,08,15,24,-1.50
2009,12,08,15,25,-1.60
2009,12,08,15,26,-1.60
2009,12,08,15,27,-1.70
2009,12,08,15,28,-1.70
2009,12,08,15,29,-1.70
2009,12,08,15,30,-1.80
2009,12,08,15,31,-1.80
2009,12,08,15,32,-1.80
2009,12,08,15,33,-1.80
2009,12,08,15,34,-1.80
2009,12,08,15,35,-1.80
2009,12,08,15,36,-1.80
2009,12,08,15,37,-1.90
2009,12,08,15,38,-1.90
2009,12,08,15,39,-1.90
2009,12,08,15,40,-1.90
2009,12,08,15,41,-1.90
2009,12,08,15,42,-2.00
2009,12,08,15,43,-2.00
2009,12,08,15,44,-2.00
2009,12,08,15,45,-2.10
2009,12,08,15,46,-2.10
2009,12,08,15,47,-2.10
2009,12,08,15,48,-2.10
2009,12,08,15,49,-2.10
2009,12,08,15,50,-2.10
2009,12,08,15,51,-2.20
2009,12,08,15,52,-2.20
2009,12,08,15,53,-2.20
2009,12,08,15,54,-2.30
2009,12,08,15,55,-2.30
2009,12,08,15,56,-2.30
2009,12,08,15,57,-2.40
2009,12,08,15,58,-2.40
2009,12,08,15,59,-2.40
2009,12,08,16,00,-2.50
2009,12,08,16,01,-2.50
2009,12,08,16,02,-2.50
2009,12,08,16,03,-2.50
2009,12,08,16,04,-2.50
2009,12,08,16,05,-2.50
2009,12,08,16,06,-2.50
2009,12,08,16,07,-2.50
2009,12,08,16,08,-2.50
2009,12,08,16,09,-2.50
2009,12,08,16,10,-2.50
2009,12,08,16,11,-2.50
2009,12,08,16,12,-2.50
2009,12,08,16,13,-2.50
2009,12,08,16,14,-2.60
2009,12,08,16,15,-2.60
2009,12,08,16,16,-2.60
2009,12,08,16,17,-2.70
2009,12,08,16,18,-2.70
2009,12,08,16,19,-2.80
2009,12,08,16,20,-2.80
2009,12,08,16,21,-2.90
2009,12,08,16,22,-3.00
2009,12,08,16,23,-3.00
2009,12,08,16,24,-3.10
2009,12,08,16,25,-3.20
2009,12,08,16,26,-3.20
2009,12,08,16,27,-3.20
2009,12,08,16,28,-3.30
2009,12,08,16,29,-3.30
2009,12,08,16,30,-3.30
2009,12,08,16,31,-3.30
2009,12,08,16,32,-3.30
2009,12,08,16,33,-3.30
2009,12,08,16,34,-3.30
2009,12,08,16,35,-3.30
2009,12,08,16,36,-3.30
2009,12,08,16,37,-3.30
2009,12,08,16,38,-3.30
2009,12,08,16,39,-3.40
2009,12,08,16,40,-3.40
2009,12,08,16,41,-3.40
2009,12,08,16,42,-3.40
2009,12,08,16,43,-3.40
2009,12,08,16,44,-3.40
2009,12,08,16,45,-3.50
2009,12,08,16,46,-3.50
2009,12,08,16,47,-3.60
2009,12,08,16,48,-3.60
2009,12,08,16,49,-3.60
2009,12,08,16,50,-3.60
2009,12,08,16,51,-3.70
2009,12,08,16,52,-3.70
2009,12,08,16,53,-3.70
2009,12,08,16,54,-3.70
2009,12,08,16,55,-3.80
2009,12,08,16,56,-3.80
2009,12,08,16,57,-3.80
2009,12,08,16,58,-3.80
2009,12,08,16,59,-3.70
2009,12,08,17,00,-3.70
2009,12,08,17,01,-3.70
2009,12,08,17,02,-3.70
2009,12,08,17,03,-3.70
2009,12,08,17,04,-3.70
2009,12,08,17,05,-3.80
2009,12,08,17,06,-3.80
2009,12,08,17,07,-3.80
2009,12,08,17,08,-3.90
2009,12,08,17,09,-3.90
2009,12,08,17,10,-3.90
2009,12,08,17,11,-4.00
2009,12,08,17,12,-4.10
2009,12,08,17,13,-4.10
2009,12,08,17,14,-4.10
2009,12,08,17,15,-4.20
2009,12,08,17,16,-4.20
2009,12,08,17,17,-4.20
2009,12,08,17,18,-4.20
2009,12,08,17,19,-4.20
2009,12,08,17,20,-4.30
2009,12,08,17,21,-4.30
2009,12,08,17,22,-4.30
2009,12,08,17,23,-4.30
2009,12,08,17,24,-4.30
2009,12,08,17,25,-4.40
2009,12,08,17,26,-4.40
2009,12,08,17,27,-4.40
2009,12,08,17,28,-4.40
2009,12,08,17,29,-4.40
2009,12,08,17,30,-4.50
2009,12,08,17,31,-4.50
2009,12,08,17,32,-4.50
2009,12,08,17,33,-4.60